[Iaude] MPEC J275: 2024 JX14 [a=1.76,e=0.42,i=2.6,H=25.6]

mpec at cfa.harvard.edu mpec at cfa.harvard.edu
Sun May 12 06:18:34 EDT 2024


M.P.E.C. 2024-J275                                 Issued 2024 May 12, 10:16 UT

     The Minor Planet Electronic Circulars contain information on unusual
         minor planets, routine data on comets and natural satellites,
         and occasional editorial announcements.  They are published
    on behalf of Division F of the International Astronomical Union by the
          Minor Planet Center, Smithsonian Astrophysical Observatory,
                          Cambridge, MA 02138, U.S.A.
			  
             Prepared using the Tamkin Foundation Computer Network

                              MPC at CFA.HARVARD.EDU
            URL https://www.minorplanetcenter.net/    ISSN 1523-6714

                                   2024 JX14                                    


Observations:
     K24J14X* C2024 05 09.28584412 06 34.746-31 52 20.37         21.38wXEJ275F51
     K24J14X  C2024 05 09.29753612 06 33.071-31 53 42.15         21.43wXEJ275F51
     K24J14X  C2024 05 09.30924312 06 31.369-31 55 04.46         21.69wXEJ275F51
     K24J14X KC2024 05 09.42195112 06 21.089-32 06 04.57         20.3 GVEJ275474
     K24J14X KC2024 05 09.42691412 06 20.376-32 06 38.81         21.0 GVEJ275474
     K24J14X KC2024 05 09.43187812 06 19.711-32 07 13.91         20.7 GVEJ275474
     K24J14X KC2024 05 09.43691012 06 19.068-32 07 49.33         21.3 GVEJ275474
     K24J14X KC2024 05 10.16262412 05 19.637-33 38 21.01         21.27GVEJ275I52
     K24J14X KC2024 05 10.16803612 05 18.856-33 39 01.76         21.12GVEJ275I52
     K24J14X KC2024 05 10.17344712 05 18.071-33 39 42.05         21.33GVEJ275I52
     K24J14X KC2024 05 10.17886612 05 17.268-33 40 23.05         21.98GVEJ275I52
     K24J14X 3C2024 05 10.25830012 05 13.180-33 50 04.62         21.07GVEJ275T14
     K24J14X 3C2024 05 10.25927812 05 13.032-33 50 12.10         21.16GVEJ275T14
     K24J14X 3C2024 05 10.26025812 05 12.886-33 50 19.65         21.34GVEJ275T14
     K24J14X 3C2024 05 10.26123612 05 12.739-33 50 27.23         21.37GVEJ275T14
     K24J14X KC2024 05 10.44477912 04 51.538-34 11 32.82         21.4 GVEJ275474
     K24J14X KC2024 05 10.45470112 04 50.196-34 12 47.84         21.1 GVEJ275474
     K24J14X KC2024 05 10.45982912 04 49.526-34 13 26.72         21.4 GVEJ275474
     K24J14X KC2024 05 10.46479112 04 48.890-34 14 04.70         20.9 GVEJ275474
     K24J14X KC2024 05 12.40428812 01 48.000-38 44 14.57         20.5 GVEJ275474
     K24J14X KC2024 05 12.40801212 01 47.364-38 44 48.34         21.1 GVEJ275474
     K24J14X KC2024 05 12.41173312 01 46.790-38 45 22.10         20.8 GVEJ275474

Observer details:
474 Mount John Observatory, Lake Tekapo.  Observers A. C. Gilmore, P. M.
    Kilmartin.  Measurer P. M. Kilmartin.  1.0-m f/7.7 Reflector + CCD.
F51 Pan-STARRS 1, Haleakala.  Observers J. Herman, T. Lowe, P. Minguez, A.
    Schultz, I. Smith.  Measurers K. Chambers, T. de Boer, J. Fairlamb, H.
    Gao, M. Huber, C.-C. Lin, E. Magnier, Y. Ramanjooloo, R. Wainscoat, R.
    Weryk.  1.8-m Ritchey-Chretien + CCD.
I52 Steward Observatory, Mt. Lemmon Station.  Observer H. Groeller.  Measurers
    T. Beuden, V. F. Carvajal, D. Fay, J. B. Fazekas, D. C. Fuls, A. R. Gibbs,
    A. D. Grauer, H. Groeller, J. K. Hogan, R. A. Kowalski, S. M. Larson, G.
    J. Leonard, D. Rankin, R. L. Seaman, F. C. Shelly, K. W. Wierzchos.  1.0-m
    prime focus + CCD.
T14 Canada-France-Hawaii Telescope, Maunakea.  Observers R. Wainscoat, L.
    Wells, H. Flewelling.  Measurers R. Weryk, R. Wainscoat.  3.6-m f/4.1
    reflector + CCD.

Orbital elements:
2024 JX14                                                Earth MOID = 0.0419 AU
Epoch 2024 Mar. 31.0 TT = JDT 2460400.5                 MPC                     
M 332.33545              (2000.0)            P               Q                  
n   0.42233151     Peri.  250.95254     -0.23889192     +0.97103745             
a   1.7594100      Node     5.23149     -0.87308983     -0.21293659             
e   0.4200281      Incl.    2.58645     -0.42502330     -0.10837106             
P   2.33           H   25.64          G   0.15           U   7                  
Residuals in seconds of arc
240509 F51  0.1-  0.1-    240510 I52  0.1-  0.2-    240510 474  0.2-  0.1+
240509 F51  0.0   0.2+    240510 I52  0.1-  0.3+    240510 474  0.1+  0.0
240509 F51  0.2-  0.2-    240510 I52  0.3-  0.0     240510 474  0.5+  0.6-
240509 474  0.9+  0.1-    240510 T14  0.0   0.0     240512 474  0.4+  0.3+
240509 474  0.0   0.5+    240510 T14  0.0   0.0     240512 474  0.1-  0.1+
240509 474  0.2-  0.1+    240510 T14  0.0   0.0     240512 474  0.1+  0.2-
240509 474  0.1-  0.2-    240510 T14  0.0   0.1-
240510 I52  0.1-  0.2-    240510 474  0.4-  0.1+

Ephemeris:
2024 JX14                a,e,i = 1.76, 0.42, 3                   q = 1.0204
Date    TT    R. A. (2000) Decl.     Delta      r    Elong.  Phase     V
2024 04 12    12 35 52.5 -09 02 28   0.1706  1.1702   168.5     9.8    22.8
...
2024 04 27    12 21 03.7 -16 32 09   0.1080  1.1027   151.6    25.7    22.2
...
2024 05 05    12 12 03.9 -24 49 59   0.08036 1.0734   142.5    34.9    21.8
...
2024 05 11    12 04 04.1 -35 24 35   0.06258 1.0551   135.0    42.6    21.4
2024 05 12    12 02 29.4 -37 44 24   0.05994 1.0524   133.6    44.0    21.3
2024 05 13    12 00 47.0 -40 16 27   0.05743 1.0498   132.2    45.5    21.3
...
2024 05 19    11 43 50.3 -60 30 12   0.04562 1.0364   121.7    56.1    21.0
...
2024 05 27    01 48 19.9 -81 09 42   0.04341 1.0246   104.1    73.5    21.5
...
2024 06 11    00 17 35.6 -39 13 11   0.07468 1.0228    93.6    82.2    22.9

A. U. Tomatic                (C) Copyright 2024 MPC           M.P.E.C. 2024-J275





More information about the Iaude mailing list